Starlink 3680

operational
NORAD ID: 51969 Int'l Des: 2022-025 Owner: SPXS Country: US Constellation: starlink
LEOCIRCULARSTARLINK_TYPE

关于 Starlink 3680

正在加载描述...

实时位置

正在加载3D地球...

即将过境

高度历史

Altitude vs Time

uPlot chart will show altitude changes over time

两行轨道根数

1 51969U 22025P 25258.81088768 .00000901 00000-0 79347-4 0 9993
2 51969 53.0544 92.2903 0001356 95.9980 264.1164 15.06399517194603
Epoch: Sep 15, 2025 • Age: 19 hours

当前状态

高度 559.6 km
速度 7.58 km/s
星下点 -36.18°S, 155.59°W
发射日期 Mar 9, 2022
运行时间 3.5 years
类型 internet

技术详情

分类 Payload
质量 297.00 kg
干质量 275.00 kg
总质量 297.00 kg
长度 0.20 m
直径 2.80 m
跨度 9.00 m
形状 Box + pan
制造商 SPXS
平台类型 Starlink
阶段状态 In Orbit
所有者/国家 SPXS/US

大型星座

Loading constellations...